Regional Weather Roundup
Issued by NWS

Home | Current Version | Previous Version | Text Only | Print | Product List | Glossary Off
Versions: 1 2 3 4 5 6 7 8 9 10 11 12 13 14 15 16 17 18 19 20 21 22 23 24 25 26 27 28 29 30 31 32 33 34 35 36 37 38 39 40 41 42 43 44 45 46 47 48 49 50

000
ASUS45 KSLC 090210
RWRUT

UTAH REGIONAL WEATHER ROUNDUP
NATIONAL WEATHER SERVICE SALT LAKE CITY UT
700 PM MST THU DEC 08 2016

UTZ001>011-023>025-090300-

NORTHERN UTAH

CITY           SKY/WX    TMP DP  RH WIND       PRES   REMARKS
BRIGHAM CITY     N/A     23  19  85 NW3       30.17S
HILL AFB       FLURRIES  23  19  83 E9        30.13F WCI  13
LOGAN          LGT SNOW  19  18  95 CALM      30.17S VSB 1
OGDEN          CLOUDY    24  21  88 NW3       30.14F
SALT LAKE CITY CLOUDY    27  23  85 NW7       30.14F WCI  19
WENDOVER       PTCLDY    21  16  79 W3        30.17R
HEBER CITY     FLURRIES  28  23  80 CALM      30.13R

$$

UTZ011>015-024>027-090300-

CENTRAL/NORTHEAST UTAH

CITY           SKY/WX    TMP DP  RH WIND       PRES   REMARKS
PROVO AIRPORT  CLOUDY    30  23  75 NW6       30.17F WCI  24
MOAB/CANYONLAN CLEAR     30   5  34 CALM      30.27R
DELTA          CLOUDY    32  12  43 MISG      30.15R
PRICE          CLOUDY    24   8  50 N5        30.24S WCI  18
RICHFIELD      CLOUDY    30  12  47 CALM      30.20R
ROOSEVELT      LGT SNOW  23  18  80 W5        30.26R WCI  17
VERNAL         CLOUDY    23   5  46 W5        30.23S WCI  17

$$

UTZ013>016-019>022-027-090300-

SOUTHERN UTAH

CITY           SKY/WX    TMP DP  RH WIND       PRES   REMARKS
BRYCE CANYON   PTCLDY    20  10  65 CALM      30.24R
CEDAR CITY     PTCLDY    39  21  48 SW8       30.19R WCI  33
MILFORD        MOCLDY    42  19  39 S21       30.17R
ST GEORGE      CLOUDY    41  12  30 SE8       30.26S
HANKSVILLE     CLEAR     28   3  34 CALM      30.31R
KANAB          PTCLDY    32  21  64 NE7       30.28R WCI  26
BLANDING       MOCLDY    27   8  43 N8        30.35S WCI  19

$$

REGIONAL REPORTS     COLORADO/ARIZONA

CITY           SKY/WX    TMP DP  RH WIND       PRES   REMARKS
CRAIG, CO      CLOUDY    20  12  71 E9        30.18F WCI   9
GRAND JUNCTION CLOUDY    28  13  53 CALM      30.28R
RIFLE, CO        N/A    N/A N/A N/A MISG      30.26
MONTROSE, CO   CLOUDY    28  12  51 E3        30.28S
CORTEZ, CO     CLOUDY    28  19  69 CALM      30.29R
COLORADO CITY    N/A     30  21  69 CALM      30.26S
PAGE, AZ       CLEAR     37   5  26 S3        30.26R
GRAND CANYON   CLEAR     29  23  78 CALM      30.28R
KINGMAN, AZ    PTCLDY    45  19  35 S9        30.23R
FLAGSTAFF, AZ  CLEAR     31  22  69 CALM      30.28R

$$

REGIONAL REPORTS    NEVADA/IDAHO/WYOMING

CITY           SKY/WX    TMP DP  RH WIND       PRES   REMARKS
LAS VEGAS, NV  MOCLDY    52   7  16 CALM      30.23R
ELY, NY        CLOUDY    34  14  43 SE3       30.18R
ELKO, NV       CLOUDY    28  24  85 SW5       30.09R WCI  23
POCATELLO, ID  LGT SNOW  20  18  92 N6        30.11F WCI  12
BURLEY, ID     LGT SNOW  20  18  92 E10       30.06F FOG     WCI   9
FORT BRIDGER,  LGT SNOW   7   6  98 CALM      30.13F
EVANSTON, WY   LGT SNOW  10   5  80 E10       30.06F WCI  -4
ROCK SPRINGS,  LGT SNOW   9   6  88 CALM      30.10F FOG

$$



USA.gov is the U.S. government's official web portal to all federal, state and local government web resources and services.